ARG1613 SABE-SAZM

Flight info

Callsign ARG1613
Flight time 0h 40m
Altitude 31000
Route PTA8 GBE UW29 VOTRA VOTRA1U
Aircraft B738/M-SDE2E3FGHIRWXY/LB1

Departure

Time 2026-05-07 21:42
Airport Aeroparque Jorge Newbery (SABE)

Arrival

Time 2026-05-07 22:22
Airport Ástor Piazzola International Airport (SAZM)
Time Latitude Longitude Altitude Speed Heading
2026-05-07 21:17 -34.55780 -58.41289 28 ft 0 kts 36°
2026-05-07 21:29 -34.55781 -58.41290 24 ft 0 kts 36°
2026-05-07 21:29 -34.55782 -58.41291 24 ft 0 kts 36°
2026-05-07 21:30 -34.55790 -58.41298 24 ft 3 kts 36°
2026-05-07 21:31 -34.55796 -58.41303 30 ft 2 kts 50°
2026-05-07 21:31 -34.55810 -58.41311 27 ft 2 kts 341°
2026-05-07 21:31 -34.55824 -58.41301 26 ft 2 kts 317°
2026-05-07 21:31 -34.55832 -58.41290 29 ft 0 kts 304°
2026-05-07 21:34 -34.55826 -58.41303 26 ft 4 kts 302°
2026-05-07 21:34 -34.55804 -58.41346 29 ft 7 kts 301°
2026-05-07 21:34 -34.55777 -58.41396 25 ft 8 kts 304°
2026-05-07 21:34 -34.55742 -58.41461 28 ft 10 kts 300°
2026-05-07 21:35 -34.55721 -58.41536 24 ft 7 kts 257°
2026-05-07 21:35 -34.55729 -58.41552 24 ft 1 kts 227°
2026-05-07 21:35 -34.55745 -58.41567 29 ft 4 kts 217°
2026-05-07 21:35 -34.55776 -58.41590 26 ft 7 kts 200°
2026-05-07 21:36 -34.55823 -58.41544 26 ft 12 kts 117°
2026-05-07 21:36 -34.55871 -58.41430 26 ft 17 kts 117°
2026-05-07 21:36 -34.55926 -58.41302 26 ft 17 kts 121°
2026-05-07 21:36 -34.55993 -58.41192 24 ft 16 kts 128°
2026-05-07 21:37 -34.56059 -58.41086 28 ft 15 kts 126°
2026-05-07 21:37 -34.56121 -58.40985 25 ft 15 kts 127°
2026-05-07 21:37 -34.56171 -58.40885 28 ft 10 kts 116°
2026-05-07 21:37 -34.56180 -58.40818 24 ft 8 kts 117°
2026-05-07 21:38 -34.56218 -58.40747 24 ft 13 kts 124°
2026-05-07 21:38 -34.56276 -58.40644 26 ft 15 kts 124°
2026-05-07 21:38 -34.56337 -58.40555 25 ft 13 kts 137°
2026-05-07 21:38 -34.56390 -58.40497 27 ft 8 kts 137°
2026-05-07 21:39 -34.56398 -58.40488 24 ft 0 kts 137°
2026-05-07 21:40 -34.56399 -58.40487 24 ft 1 kts 137°
2026-05-07 21:40 -34.56424 -58.40460 28 ft 11 kts 137°
2026-05-07 21:40 -34.56485 -58.40393 25 ft 12 kts 141°
2026-05-07 21:41 -34.56557 -58.40409 28 ft 6 kts 222°
2026-05-07 21:41 -34.56557 -58.40446 28 ft 5 kts 305°
2026-05-07 21:41 -34.56479 -58.40585 27 ft 54 kts 304°
2026-05-07 21:41 -34.56119 -58.41230 28 ft 128 kts 303°
2026-05-07 21:42 -34.55570 -58.42217 596 ft 140 kts 298°
2026-05-07 21:42 -34.54993 -58.43187 1396 ft 154 kts 304°
2026-05-07 21:42 -34.53979 -58.43919 1905 ft 193 kts 336°
2026-05-07 21:42 -34.52489 -58.43862 2164 ft 239 kts 16°
2026-05-07 21:43 -34.51107 -58.42559 2455 ft 268 kts 54°
2026-05-07 21:43 -34.50480 -58.40386 2846 ft 282 kts 92°
2026-05-07 21:43 -34.50792 -58.38049 3630 ft 282 kts 109°
2026-05-07 21:43 -34.51289 -58.35799 4675 ft 278 kts 110°
2026-05-07 21:44 -34.51790 -58.33492 5491 ft 286 kts 107°
2026-05-07 21:44 -34.52289 -58.31116 6248 ft 295 kts 104°
2026-05-07 21:44 -34.52783 -58.28699 7080 ft 299 kts 103°
2026-05-07 21:44 -34.53357 -58.26264 7947 ft 301 kts 113°
2026-05-07 21:45 -34.54479 -58.24093 8777 ft 305 kts 126°
2026-05-07 21:45 -34.55946 -58.22245 9535 ft 312 kts 144°
2026-05-07 21:45 -34.57785 -58.20771 10128 ft 324 kts 149°
2026-05-07 21:45 -34.59783 -58.19292 10416 ft 345 kts 149°
2026-05-07 21:46 -34.61868 -58.17754 11076 ft 352 kts 148°
2026-05-07 21:46 -34.63952 -58.16192 11984 ft 352 kts 149°
2026-05-07 21:46 -34.66199 -58.15002 12807 ft 355 kts 170°
2026-05-07 21:46 -34.68645 -58.15004 13607 ft 354 kts 195°
2026-05-07 21:47 -34.71008 -58.15779 14342 ft 358 kts 198°
2026-05-07 21:47 -34.73449 -58.16550 14980 ft 366 kts 199°
2026-05-07 21:47 -34.75920 -58.17308 15704 ft 372 kts 199°
2026-05-07 21:47 -34.78447 -58.18068 16439 ft 377 kts 200°
2026-05-07 21:48 -34.80988 -58.18821 17143 ft 383 kts 200°
2026-05-07 21:48 -34.83604 -58.19591 17851 ft 389 kts 201°
2026-05-07 21:48 -34.86272 -58.20373 18462 ft 396 kts 202°
2026-05-07 21:48 -34.88977 -58.21171 18987 ft 405 kts 202°
2026-05-07 21:49 -34.91746 -58.21979 19544 ft 412 kts 201°
2026-05-07 21:49 -34.94566 -58.22800 20070 ft 419 kts 201°
2026-05-07 21:49 -34.97397 -58.23623 20590 ft 426 kts 201°
2026-05-07 21:49 -35.00309 -58.24472 21106 ft 434 kts 201°
2026-05-07 21:50 -35.03274 -58.25337 21621 ft 441 kts 201°
2026-05-07 21:50 -35.06282 -58.26215 22126 ft 448 kts 201°
2026-05-07 21:50 -35.09345 -58.27110 22629 ft 454 kts 201°
2026-05-07 21:50 -35.12441 -58.28016 23155 ft 461 kts 202°
2026-05-07 21:51 -35.15574 -58.28932 23635 ft 465 kts 201°
2026-05-07 21:51 -35.18731 -58.29856 24108 ft 469 kts 201°
2026-05-07 21:51 -35.21887 -58.30780 24528 ft 474 kts 201°
2026-05-07 21:51 -35.25116 -58.31728 24957 ft 479 kts 201°
2026-05-07 21:52 -35.28377 -58.32686 25379 ft 484 kts 201°
2026-05-07 21:52 -35.31665 -58.33654 25790 ft 488 kts 201°
2026-05-07 21:52 -35.34991 -58.34633 26203 ft 493 kts 201°
2026-05-07 21:52 -35.38332 -58.35617 26638 ft 497 kts 201°
2026-05-07 21:53 -35.41716 -58.36614 27027 ft 501 kts 201°
2026-05-07 21:53 -35.45093 -58.37610 27442 ft 505 kts 201°
2026-05-07 21:53 -35.48527 -58.38623 27912 ft 507 kts 201°
2026-05-07 21:53 -35.51964 -58.39638 28389 ft 509 kts 201°
2026-05-07 21:54 -35.55412 -58.40656 28915 ft 510 kts 201°
2026-05-07 21:54 -35.58862 -58.41677 29486 ft 510 kts 201°
2026-05-07 21:54 -35.62323 -58.42703 29927 ft 511 kts 201°
2026-05-07 21:54 -35.65735 -58.43714 30470 ft 508 kts 201°
2026-05-07 21:55 -35.69202 -58.44744 30606 ft 512 kts 201°
2026-05-07 21:55 -35.72734 -58.45496 30603 ft 517 kts 190°
2026-05-07 21:55 -35.79907 -58.45093 30580 ft 515 kts 169°
2026-05-07 21:56 -35.86798 -58.42870 30599 ft 515 kts 164°
2026-05-07 21:56 -35.93715 -58.40473 30602 ft 516 kts 164°
2026-05-07 21:57 -36.00662 -58.38129 30618 ft 517 kts 165°
2026-05-07 21:57 -36.07611 -58.35838 30599 ft 520 kts 165°
2026-05-07 21:58 -36.14626 -58.33535 30594 ft 521 kts 165°
2026-05-07 21:58 -36.21648 -58.31222 30334 ft 524 kts 166°
2026-05-07 21:59 -36.25169 -58.30059 29860 ft 524 kts 166°
2026-05-07 21:59 -36.28700 -58.28891 29296 ft 524 kts 166°
2026-05-07 21:59 -36.32231 -58.27721 28681 ft 524 kts 166°
2026-05-07 21:59 -36.35699 -58.26571 28177 ft 521 kts 166°
2026-05-07 22:00 -36.39185 -58.25413 27749 ft 516 kts 166°
2026-05-07 22:00 -36.42641 -58.24264 27322 ft 512 kts 167°
2026-05-07 22:00 -36.46079 -58.23121 26883 ft 508 kts 167°
2026-05-07 22:00 -36.49481 -58.21989 26447 ft 504 kts 167°
2026-05-07 22:01 -36.52854 -58.20866 26018 ft 500 kts 167°
2026-05-07 22:01 -36.56210 -58.19748 25547 ft 496 kts 167°
2026-05-07 22:01 -36.59539 -58.18638 25139 ft 492 kts 168°
2026-05-07 22:01 -36.62793 -58.17551 24729 ft 488 kts 168°
2026-05-07 22:02 -36.66058 -58.16459 24315 ft 484 kts 168°
2026-05-07 22:02 -36.69299 -58.15375 23876 ft 481 kts 168°
2026-05-07 22:02 -36.72522 -58.14296 23443 ft 478 kts 168°
2026-05-07 22:02 -36.75732 -58.13221 22985 ft 475 kts 168°
2026-05-07 22:03 -36.78922 -58.12151 22508 ft 471 kts 168°
2026-05-07 22:03 -36.82074 -58.11094 22064 ft 466 kts 168°
2026-05-07 22:03 -36.85151 -58.10060 21628 ft 460 kts 168°
2026-05-07 22:03 -36.88229 -58.09025 21203 ft 455 kts 168°
2026-05-07 22:04 -36.91269 -58.08002 20793 ft 449 kts 168°
2026-05-07 22:04 -36.94269 -58.06992 20384 ft 443 kts 168°
2026-05-07 22:04 -36.97235 -58.05993 19992 ft 438 kts 167°
2026-05-07 22:04 -37.00162 -58.05006 19586 ft 432 kts 167°
2026-05-07 22:05 -37.03013 -58.04045 19184 ft 426 kts 167°
2026-05-07 22:05 -37.05861 -58.03057 18772 ft 421 kts 163°
2026-05-07 22:05 -37.08467 -58.01431 18368 ft 417 kts 146°
2026-05-07 22:05 -37.10862 -57.99414 18005 ft 411 kts 146°
2026-05-07 22:06 -37.13222 -57.97429 17563 ft 406 kts 146°
2026-05-07 22:06 -37.15565 -57.95475 17139 ft 400 kts 147°
2026-05-07 22:06 -37.17843 -57.93591 16723 ft 394 kts 147°
2026-05-07 22:06 -37.20112 -57.91726 16294 ft 388 kts 147°
2026-05-07 22:07 -37.22363 -57.89880 15905 ft 383 kts 147°
2026-05-07 22:07 -37.24599 -57.88049 15516 ft 379 kts 147°
2026-05-07 22:07 -37.26769 -57.86273 15136 ft 375 kts 147°
2026-05-07 22:07 -37.28940 -57.84495 14759 ft 371 kts 146°
2026-05-07 22:08 -37.31092 -57.82731 14401 ft 366 kts 146°
2026-05-07 22:08 -37.32504 -57.81572 14129 ft 365 kts 146°
2026-05-07 22:08 -37.35336 -57.79248 13625 ft 360 kts 146°
2026-05-07 22:08 -37.36727 -57.78106 13372 ft 358 kts 146°
2026-05-07 22:09 -37.38804 -57.76396 12951 ft 355 kts 146°
2026-05-07 22:09 -37.40872 -57.74694 12552 ft 352 kts 146°
2026-05-07 22:09 -37.42884 -57.73038 12169 ft 348 kts 146°
2026-05-07 22:09 -37.44905 -57.71372 11796 ft 345 kts 147°
2026-05-07 22:10 -37.46905 -57.69724 11431 ft 341 kts 147°
2026-05-07 22:10 -37.48883 -57.68092 11069 ft 338 kts 147°
2026-05-07 22:10 -37.50843 -57.66475 10711 ft 335 kts 147°
2026-05-07 22:10 -37.52788 -57.64885 10362 ft 331 kts 148°
2026-05-07 22:11 -37.54737 -57.63349 10037 ft 328 kts 148°
2026-05-07 22:11 -37.56668 -57.61848 9729 ft 324 kts 149°
2026-05-07 22:11 -37.58557 -57.60383 9478 ft 319 kts 149°
2026-05-07 22:11 -37.60405 -57.58945 9478 ft 305 kts 149°
2026-05-07 22:12 -37.62216 -57.57534 8891 ft 312 kts 149°
2026-05-07 22:12 -37.64059 -57.56095 8507 ft 311 kts 149°
2026-05-07 22:12 -37.65895 -57.54659 8181 ft 309 kts 149°
2026-05-07 22:12 -37.67706 -57.53241 7862 ft 306 kts 149°
2026-05-07 22:13 -37.69502 -57.51832 7560 ft 302 kts 149°
2026-05-07 22:13 -37.71258 -57.50455 7267 ft 299 kts 149°
2026-05-07 22:13 -37.72994 -57.49091 6966 ft 287 kts 149°
2026-05-07 22:13 -37.74674 -57.47770 6697 ft 282 kts 149°
2026-05-07 22:14 -37.76329 -57.46469 6429 ft 279 kts 149°
2026-05-07 22:14 -37.77970 -57.45179 6159 ft 277 kts 149°
2026-05-07 22:14 -37.79598 -57.43898 5891 ft 274 kts 150°
2026-05-07 22:14 -37.81208 -57.42630 5612 ft 271 kts 149°
2026-05-07 22:15 -37.82807 -57.41370 5343 ft 268 kts 150°
2026-05-07 22:15 -37.84372 -57.40136 5078 ft 265 kts 150°
2026-05-07 22:15 -37.85931 -57.38907 4841 ft 263 kts 150°
2026-05-07 22:15 -37.87480 -57.37685 4581 ft 260 kts 150°
2026-05-07 22:16 -37.89002 -57.36482 4325 ft 257 kts 151°
2026-05-07 22:16 -37.90516 -57.35286 4055 ft 254 kts 150°
2026-05-07 22:16 -37.92009 -57.34106 3805 ft 251 kts 151°
2026-05-07 22:16 -37.93561 -57.33246 3538 ft 242 kts 176°
2026-05-07 22:17 -37.95177 -57.33487 3336 ft 232 kts 201°
2026-05-07 22:17 -37.96581 -57.34424 3129 ft 226 kts 216°
2026-05-07 22:17 -37.97851 -57.35550 3082 ft 216 kts 217°
2026-05-07 22:17 -37.99052 -57.36611 3061 ft 205 kts 217°
2026-05-07 22:18 -38.00179 -57.37602 3001 ft 195 kts 217°
2026-05-07 22:18 -38.01463 -57.40285 2613 ft 181 kts 266°
2026-05-07 22:18 -38.01213 -57.41855 2433 ft 186 kts 292°
2026-05-07 22:19 -38.00539 -57.43236 2260 ft 181 kts 297°
2026-05-07 22:19 -37.99889 -57.44544 2089 ft 174 kts 296°
2026-05-07 22:19 -37.99274 -57.45787 2003 ft 159 kts 296°
2026-05-07 22:19 -37.98704 -57.46919 1851 ft 143 kts 296°
2026-05-07 22:20 -37.98170 -57.47977 1635 ft 141 kts 296°
2026-05-07 22:20 -37.97645 -57.49013 1449 ft 138 kts 296°
2026-05-07 22:20 -37.97126 -57.50038 1271 ft 139 kts 297°
2026-05-07 22:20 -37.96604 -57.51078 1107 ft 140 kts 298°
2026-05-07 22:21 -37.96078 -57.52105 917 ft 141 kts 298°
2026-05-07 22:21 -37.95543 -57.53163 725 ft 143 kts 299°
2026-05-07 22:21 -37.95002 -57.54216 525 ft 141 kts 298°
2026-05-07 22:21 -37.94479 -57.55254 318 ft 138 kts 300°
2026-05-07 22:22 -37.93937 -57.56303 104 ft 144 kts 300°
2026-05-07 22:22 -37.93440 -57.57288 47 ft 108 kts 303°
2026-05-07 22:22 -37.93224 -57.57714 52 ft 28 kts 303°
2026-05-07 22:22 -37.93146 -57.57873 52 ft 7 kts 302°
2026-05-07 22:23 -37.93138 -57.57888 49 ft 0 kts 302°
2026-05-07 22:23 -37.93129 -57.57913 52 ft 8 kts 289°
2026-05-07 22:23 -37.93159 -57.57981 53 ft 10 kts 212°
2026-05-07 22:23 -37.93187 -57.58004 53 ft 2 kts 213°
2026-05-07 22:24 -37.93199 -57.58014 53 ft 4 kts 213°
2026-05-07 22:24 -37.93240 -57.58044 53 ft 8 kts 194°
2026-05-07 22:24 -37.93299 -57.58024 53 ft 10 kts 167°
2026-05-07 22:24 -37.93364 -57.58028 53 ft 9 kts 188°
2026-05-07 22:25 -37.93420 -57.58020 53 ft 8 kts 145°
2026-05-07 22:25 -37.93442 -57.57986 53 ft 0 kts 120°